﻿測定場所 (Monitoring sites),日付 (Measurement date),時間 (Measurement time),線量率 最大値 (max) μGy/h,線量率 最小値 (min) μGy/h,線量率 平均値 (average) μGy/h,
調布 (Chofu),2013-05-19,23:01～24:00,0.0381,0.0326,0.0356,
調布 (Chofu),2013-05-19,22:01～23:00,0.0409,0.0352,0.0378,
調布 (Chofu),2013-05-19,21:01～22:00,0.0389,0.0335,0.0358,
調布 (Chofu),2013-05-19,20:01～21:00,0.0357,0.0320,0.0339,
調布 (Chofu),2013-05-19,19:01～20:00,0.0364,0.0323,0.0342,
調布 (Chofu),2013-05-19,18:01～19:00,0.0378,0.0328,0.0345,
調布 (Chofu),2013-05-19,17:01～18:00,0.0369,0.0325,0.0350,
調布 (Chofu),2013-05-19,16:01～17:00,0.0354,0.0311,0.0334,
調布 (Chofu),2013-05-19,15:01～16:00,0.0351,0.0312,0.0334,
調布 (Chofu),2013-05-19,14:01～15:00,0.0359,0.0315,0.0333,
調布 (Chofu),2013-05-19,13:01～14:00,0.0349,0.0311,0.0332,
調布 (Chofu),2013-05-19,12:01～13:00,0.0353,0.0311,0.0333,
調布 (Chofu),2013-05-19,11:01～12:00,0.0351,0.0313,0.0333,
調布 (Chofu),2013-05-19,10:01～11:00,0.0350,0.0316,0.0335,
調布 (Chofu),2013-05-19,09:01～10:00,0.0357,0.0307,0.0334,
調布 (Chofu),2013-05-19,08:01～09:00,0.0358,0.0310,0.0335,
調布 (Chofu),2013-05-19,07:01～08:00,0.0356,0.0321,0.0338,
調布 (Chofu),2013-05-19,06:01～07:00,0.0359,0.0310,0.0337,
調布 (Chofu),2013-05-19,05:01～06:00,0.0361,0.0314,0.0338,
調布 (Chofu),2013-05-19,04:01～05:00,0.0358,0.0314,0.0335,
調布 (Chofu),2013-05-19,03:01～04:00,0.0356,0.0320,0.0337,
調布 (Chofu),2013-05-19,02:01～03:00,0.0359,0.0320,0.0335,
調布 (Chofu),2013-05-19,01:01～02:00,0.0359,0.0312,0.0336,
調布 (Chofu),2013-05-19,00:01～01:00,0.0354,0.0312,0.0334,
調布 (Chofu),2013-05-18,23:01～24:00,0.0352,0.0315,0.0335,
調布 (Chofu),2013-05-18,22:01～23:00,0.0360,0.0321,0.0338,
調布 (Chofu),2013-05-18,21:01～22:00,0.0358,0.0319,0.0338,
調布 (Chofu),2013-05-18,20:01～21:00,0.0366,0.0319,0.0337,
調布 (Chofu),2013-05-18,19:01～20:00,0.0351,0.0306,0.0334,
調布 (Chofu),2013-05-18,18:01～19:00,0.0354,0.0315,0.0332,
調布 (Chofu),2013-05-18,17:01～18:00,0.0348,0.0314,0.0333,
調布 (Chofu),2013-05-18,16:01～17:00,0.0351,0.0316,0.0333,
調布 (Chofu),2013-05-18,15:01～16:00,0.0355,0.0313,0.0335,
調布 (Chofu),2013-05-18,14:01～15:00,0.0353,0.0311,0.0333,
調布 (Chofu),2013-05-18,13:01～14:00,0.0347,0.0310,0.0331,
調布 (Chofu),2013-05-18,12:01～13:00,0.0354,0.0316,0.0336,
調布 (Chofu),2013-05-18,11:01～12:00,0.0354,0.0314,0.0334,
調布 (Chofu),2013-05-18,10:01～11:00,0.0352,0.0315,0.0334,
調布 (Chofu),2013-05-18,09:01～10:00,0.0353,0.0312,0.0333,
調布 (Chofu),2013-05-18,08:01～09:00,0.0365,0.0311,0.0338,
調布 (Chofu),2013-05-18,07:01～08:00,0.0358,0.0320,0.0338,
調布 (Chofu),2013-05-18,06:01～07:00,0.0366,0.0321,0.0338,
調布 (Chofu),2013-05-18,05:01～06:00,0.0357,0.0313,0.0338,
調布 (Chofu),2013-05-18,04:01～05:00,0.0355,0.0321,0.0337,
調布 (Chofu),2013-05-18,03:01～04:00,0.0353,0.0313,0.0335,
調布 (Chofu),2013-05-18,02:01～03:00,0.0358,0.0313,0.0335,
調布 (Chofu),2013-05-18,01:01～02:00,0.0347,0.0317,0.0332,
調布 (Chofu),2013-05-18,00:01～01:00,0.0360,0.0317,0.0332,
調布 (Chofu),2013-05-17,23:01～24:00,0.0350,0.0315,0.0331,
調布 (Chofu),2013-05-17,22:01～23:00,0.0352,0.0307,0.0333,
調布 (Chofu),2013-05-17,21:01～22:00,0.0361,0.0313,0.0331,
調布 (Chofu),2013-05-17,20:01～21:00,0.0353,0.0310,0.0331,
調布 (Chofu),2013-05-17,19:01～20:00,0.0349,0.0306,0.0330,
調布 (Chofu),2013-05-17,18:01～19:00,0.0355,0.0313,0.0330,
調布 (Chofu),2013-05-17,17:01～18:00,0.0356,0.0312,0.0331,
調布 (Chofu),2013-05-17,16:01～17:00,0.0351,0.0309,0.0330,
調布 (Chofu),2013-05-17,15:01～16:00,0.0358,0.0313,0.0331,
調布 (Chofu),2013-05-17,14:01～15:00,0.0348,0.0311,0.0330,
調布 (Chofu),2013-05-17,13:01～14:00,0.0351,0.0313,0.0331,
調布 (Chofu),2013-05-17,12:01～13:00,0.0350,0.0311,0.0329,
調布 (Chofu),2013-05-17,11:01～12:00,0.0346,0.0309,0.0329,
調布 (Chofu),2013-05-17,10:01～11:00,0.0351,0.0313,0.0330,
調布 (Chofu),2013-05-17,09:01～10:00,0.0347,0.0308,0.0328,
調布 (Chofu),2013-05-17,08:01～09:00,0.0358,0.0313,0.0333,
調布 (Chofu),2013-05-17,07:01～08:00,0.0343,0.0307,0.0327,
調布 (Chofu),2013-05-17,06:01～07:00,0.0344,0.0305,0.0327,
調布 (Chofu),2013-05-17,05:01～06:00,0.0346,0.0303,0.0328,
調布 (Chofu),2013-05-17,04:01～05:00,0.0359,0.0311,0.0330,
調布 (Chofu),2013-05-17,03:01～04:00,0.0354,0.0311,0.0331,
調布 (Chofu),2013-05-17,02:01～03:00,0.0349,0.0312,0.0331,
調布 (Chofu),2013-05-17,01:01～02:00,0.0352,0.0318,0.0335,
調布 (Chofu),2013-05-17,00:01～01:00,0.0363,0.0323,0.0342,
調布 (Chofu),2013-05-16,23:01～24:00,0.0431,0.0341,0.0378,
調布 (Chofu),2013-05-16,22:01～23:00,0.0469,0.0402,0.0432,
調布 (Chofu),2013-05-16,21:01～22:00,0.0493,0.0379,0.0430,
調布 (Chofu),2013-05-16,20:01～21:00,0.0539,0.0442,0.0488,
調布 (Chofu),2013-05-16,19:01～20:00,0.0548,0.0441,0.0478,
調布 (Chofu),2013-05-16,18:01～19:00,0.0690,0.0509,0.0605,
調布 (Chofu),2013-05-16,17:01～18:00,0.0649,0.0368,0.0497,
調布 (Chofu),2013-05-16,16:01～17:00,0.0424,0.0320,0.0352,
調布 (Chofu),2013-05-16,15:01～16:00,0.0360,0.0318,0.0339,
調布 (Chofu),2013-05-16,14:01～15:00,0.0355,0.0319,0.0341,
調布 (Chofu),2013-05-16,13:01～14:00,0.0359,0.0320,0.0339,
調布 (Chofu),2013-05-16,12:01～13:00,0.0360,0.0320,0.0339,
調布 (Chofu),2013-05-16,11:01～12:00,0.0356,0.0320,0.0339,
調布 (Chofu),2013-05-16,10:01～11:00,0.0360,0.0328,0.0342,
調布 (Chofu),2013-05-16,09:01～10:00,0.0369,0.0328,0.0345,
調布 (Chofu),2013-05-16,08:01～09:00,0.0365,0.0327,0.0345,
調布 (Chofu),2013-05-16,07:01～08:00,0.0368,0.0324,0.0345,
調布 (Chofu),2013-05-16,06:01～07:00,0.0365,0.0330,0.0346,
調布 (Chofu),2013-05-16,05:01～06:00,0.0361,0.0334,0.0346,
調布 (Chofu),2013-05-16,04:01～05:00,0.0365,0.0327,0.0344,
調布 (Chofu),2013-05-16,03:01～04:00,0.0362,0.0326,0.0347,
調布 (Chofu),2013-05-16,02:01～03:00,0.0361,0.0322,0.0343,
調布 (Chofu),2013-05-16,01:01～02:00,0.0365,0.0321,0.0339,
調布 (Chofu),2013-05-16,00:01～01:00,0.0359,0.0322,0.0337,
調布 (Chofu),2013-05-15,23:01～24:00,0.0370,0.0317,0.0338,
調布 (Chofu),2013-05-15,22:01～23:00,0.0353,0.0312,0.0338,
調布 (Chofu),2013-05-15,21:01～22:00,0.0357,0.0318,0.0338,
調布 (Chofu),2013-05-15,20:01～21:00,0.0357,0.0318,0.0336,
調布 (Chofu),2013-05-15,19:01～20:00,0.0358,0.0315,0.0338,
調布 (Chofu),2013-05-15,18:01～19:00,0.0354,0.0308,0.0333,
調布 (Chofu),2013-05-15,17:01～18:00,0.0353,0.0319,0.0339,
調布 (Chofu),2013-05-15,16:01～17:00,0.0352,0.0317,0.0337,
調布 (Chofu),2013-05-15,15:01～16:00,0.0362,0.0321,0.0336,
調布 (Chofu),2013-05-15,14:01～15:00,0.0359,0.0314,0.0336,
調布 (Chofu),2013-05-15,13:01～14:00,0.0358,0.0317,0.0335,
調布 (Chofu),2013-05-15,12:01～13:00,0.0352,0.0315,0.0336,
調布 (Chofu),2013-05-15,11:01～12:00,0.0355,0.0317,0.0336,
調布 (Chofu),2013-05-15,10:01～11:00,0.0356,0.0320,0.0335,
調布 (Chofu),2013-05-15,09:01～10:00,0.0359,0.0319,0.0338,
調布 (Chofu),2013-05-15,08:01～09:00,0.0355,0.0317,0.0340,
調布 (Chofu),2013-05-15,07:01～08:00,0.0358,0.0319,0.0338,
調布 (Chofu),2013-05-15,06:01～07:00,0.0357,0.0323,0.0339,
調布 (Chofu),2013-05-15,05:01～06:00,0.0356,0.0311,0.0339,
調布 (Chofu),2013-05-15,04:01～05:00,0.0361,0.0323,0.0341,
調布 (Chofu),2013-05-15,03:01～04:00,0.0355,0.0317,0.0339,
調布 (Chofu),2013-05-15,02:01～03:00,0.0357,0.0310,0.0337,
調布 (Chofu),2013-05-15,01:01～02:00,0.0354,0.0316,0.0338,
調布 (Chofu),2013-05-15,00:01～01:00,0.0359,0.0316,0.0337,
調布 (Chofu),2013-05-14,23:01～24:00,0.0357,0.0320,0.0339,
調布 (Chofu),2013-05-14,22:01～23:00,0.0358,0.0317,0.0337,
調布 (Chofu),2013-05-14,21:01～22:00,0.0363,0.0320,0.0336,
調布 (Chofu),2013-05-14,20:01～21:00,0.0357,0.0320,0.0336,
調布 (Chofu),2013-05-14,19:01～20:00,0.0355,0.0322,0.0336,
調布 (Chofu),2013-05-14,18:01～19:00,0.0354,0.0314,0.0337,
調布 (Chofu),2013-05-14,17:01～18:00,0.0360,0.0306,0.0335,
調布 (Chofu),2013-05-14,16:01～17:00,0.0363,0.0324,0.0340,
調布 (Chofu),2013-05-14,15:01～16:00,0.0355,0.0318,0.0334,
調布 (Chofu),2013-05-14,14:01～15:00,0.0365,0.0323,0.0339,
調布 (Chofu),2013-05-14,13:01～14:00,0.0351,0.0314,0.0336,
調布 (Chofu),2013-05-14,12:01～13:00,0.0359,0.0320,0.0337,
調布 (Chofu),2013-05-14,11:01～12:00,0.0362,0.0313,0.0340,
調布 (Chofu),2013-05-14,10:01～11:00,0.0374,0.0324,0.0344,
調布 (Chofu),2013-05-14,09:01～10:00,0.0361,0.0328,0.0343,
調布 (Chofu),2013-05-14,08:01～09:00,0.0369,0.0329,0.0347,
調布 (Chofu),2013-05-14,07:01～08:00,0.0396,0.0331,0.0351,
調布 (Chofu),2013-05-14,06:01～07:00,0.0379,0.0334,0.0358,
調布 (Chofu),2013-05-14,05:01～06:00,0.0372,0.0330,0.0351,
調布 (Chofu),2013-05-14,04:01～05:00,0.0359,0.0314,0.0339,
調布 (Chofu),2013-05-14,03:01～04:00,0.0356,0.0318,0.0336,
調布 (Chofu),2013-05-14,02:01～03:00,0.0362,0.0313,0.0334,
調布 (Chofu),2013-05-14,01:01～02:00,0.0352,0.0313,0.0332,
調布 (Chofu),2013-05-14,00:01～01:00,0.0353,0.0317,0.0335,
調布 (Chofu),2013-05-13,23:01～24:00,0.0354,0.0318,0.0335,
調布 (Chofu),2013-05-13,22:01～23:00,0.0363,0.0313,0.0336,
調布 (Chofu),2013-05-13,21:01～22:00,0.0356,0.0310,0.0334,
調布 (Chofu),2013-05-13,20:01～21:00,0.0352,0.0312,0.0333,
調布 (Chofu),2013-05-13,19:01～20:00,0.0346,0.0310,0.0332,
調布 (Chofu),2013-05-13,18:01～19:00,0.0350,0.0308,0.0331,
調布 (Chofu),2013-05-13,17:01～18:00,0.0346,0.0309,0.0330,
調布 (Chofu),2013-05-13,16:01～17:00,0.0362,0.0306,0.0333,
調布 (Chofu),2013-05-13,15:01～16:00,0.0355,0.0307,0.0332,
調布 (Chofu),2013-05-13,14:01～15:00,0.0361,0.0314,0.0333,
調布 (Chofu),2013-05-13,13:01～14:00,0.0352,0.0306,0.0331,
調布 (Chofu),2013-05-13,12:01～13:00,0.0351,0.0314,0.0335,
調布 (Chofu),2013-05-13,11:01～12:00,0.0349,0.0309,0.0333,
調布 (Chofu),2013-05-13,10:01～11:00,0.0357,0.0318,0.0338,
調布 (Chofu),2013-05-13,09:01～10:00,0.0359,0.0324,0.0342,
調布 (Chofu),2013-05-13,08:01～09:00,0.0370,0.0325,0.0347,
調布 (Chofu),2013-05-13,07:01～08:00,0.0370,0.0335,0.0353,
調布 (Chofu),2013-05-13,06:01～07:00,0.0373,0.0327,0.0351,
調布 (Chofu),2013-05-13,05:01～06:00,0.0383,0.0328,0.0350,
調布 (Chofu),2013-05-13,04:01～05:00,0.0370,0.0327,0.0351,
調布 (Chofu),2013-05-13,03:01～04:00,0.0368,0.0320,0.0344,
調布 (Chofu),2013-05-13,02:01～03:00,0.0356,0.0313,0.0336,
調布 (Chofu),2013-05-13,01:01～02:00,0.0353,0.0314,0.0335,
調布 (Chofu),2013-05-13,00:01～01:00,0.0355,0.0318,0.0335,
